Location: Maiden_LMO
(35.5760°N, 81.2120°W)
Time: 07:55:18
(UTC-04:00)

ADEOS II - Visible Passes

Search period start: 25 October 2014 00:00
Search period end: 03 November 2014 23:00
Orbit: 802 x 802 km, 98.3° (Epoch: 24 October)

Date Brightness Start Highest point End Pass type
(mag) Time Alt. Az. Time Alt. Az. Time Alt. Az.
25 Oct 3.3 06:58:48 10° NNE 07:03:53 48° E 07:08:57 10° S visible
25 Oct 5.3 19:57:24 10° SW 20:00:28 16° W 20:03:33 10° NW visible
26 Oct 4.5 06:33:21 10° NE 06:37:46 27° E 06:42:09 10° SSE visible
26 Oct 4.4 19:29:47 10° SSW 19:34:15 28° W 19:38:45 10° NW visible
27 Oct 5.3 06:08:39 10° ENE 06:11:32 15° E 06:14:24 10° SE visible
27 Oct 3.2 19:03:02 10° S 19:08:08 51° W 19:13:15 10° NNW visible
29 Oct 3.4 06:54:33 10° NNE 06:59:35 44° E 07:04:35 10° S visible
29 Oct 5.2 19:52:48 10° SW 19:56:08 17° W 19:59:30 10° NW visible
30 Oct 4.6 06:29:10 10° NE 06:33:26 25° E 06:37:41 10° SSE visible
30 Oct 4.2 19:25:20 10° SSW 19:29:56 31° W 19:34:33 10° NW visible
31 Oct 5.4 06:04:40 10° ENE 06:07:12 13° E 06:09:42 10° ESE visible
31 Oct 3.0 18:58:41 10° S 19:03:49 56° W 19:08:59 10° NNW visible
01 Nov 2.4 07:16:04 10° NNE 07:21:20 75° ESE 07:26:34 10° S visible
02 Nov 3.6 05:50:18 10° NNE 05:55:16 41° E 06:00:11 10° SSE visible
02 Nov 5.0 18:48:12 10° SW 18:51:47 19° W 18:55:24 10° NW visible
03 Nov 4.7 05:25:00 10° NE 05:29:06 23° E 05:33:10 10° SE visible
03 Nov 4.0 18:20:54 10° SSW 18:25:36 33° W 18:30:20 10° NNW visible
